Location: Goudex
(43.3760°N, 0.9543°E)
Time: 14:50:52
(UTC+00:00)

Cosmos 1400 Rocket - Pass Details

Date: 20 November 2019
Orbit: 522 x 568 km, 81.2° (Epoch: 04 December)

Event Time Altitude Azimuth Distance (km) Brightness Sun altitude
Rises 05:28:51 0° 351° (N) 2,751 6.2 -15.6°
Reaches altitude 10° 05:31:03 10° 354° (N) 1,844 5.3 -15.2°
Maximum altitude 05:35:07 73° 79° (E) 578 3.0 -14.5°
Drops below altitude 10° 05:39:05 10° 165° (SSE) 1,801 5.8 -13.8°
Sets 05:41:13 0° 167° (SSE) 2,680 6.7 -13.4°
